Location: ?
(35.4064°N, 139.3593°E)
Time: 18:02:02
(UTC+00:00)

Hubble Space Telescope - Pass Details

Date: 13 December 2025
Orbit: 479 x 482 km, 28.5° (Epoch: 12 January)

Event Time Altitude Azimuth Distance (km) Brightness Sun altitude
Rises 09:27:05 0° 255° (WSW) 2,528 5.7 -23.0°
Reaches altitude 10° 09:29:29 10° 243° (WSW) 1,648 4.3 -23.5°
Enters shadow 09:32:36 27° 188° (S) 937 2.1 -24.1°
